Time,TemperatureF,DewpointF,PressureIn,WindDirection,WindDirectionDegrees,WindSpeedMPH,WindSpeedGustMPH,Humidity,HourlyPrecipIn,Conditions,Clouds,dailyrainin,SoftwareType,DateUTC
2013-07-18 00:01:00,75.6,70.3,30.02,SE,135,0.0,0.0,84,0.00,,,0.00,meteobridge,2013-07-18 04:01:00,
2013-07-18 00:02:00,75.6,70.3,30.02,SE,135,0.0,0.0,84,0.00,,,0.00,meteobridge,2013-07-18 04:02:00,
2013-07-18 00:07:00,75.6,70.3,30.01,South,180,0.0,0.0,84,0.00,,,0.00,meteobridge,2013-07-18 04:07:00,
2013-07-18 00:12:00,75.6,70.3,30.01,South,180,0.0,0.0,84,0.00,,,0.00,meteobridge,2013-07-18 04:12:00,
2013-07-18 00:18:00,75.6,70.3,30.00,SE,135,0.0,0.0,84,0.00,,,0.00,meteobridge,2013-07-18 04:18:00,
2013-07-18 00:23:00,75.4,70.2,30.00,NW,315,0.0,0.0,84,0.00,,,0.00,meteobridge,2013-07-18 04:23:00,
2013-07-18 00:28:00,75.4,70.2,30.00,West,270,0.0,0.0,84,0.00,,,0.00,meteobridge,2013-07-18 04:28:00,
2013-07-18 00:33:00,75.4,70.2,30.01,South,180,0.0,0.0,84,0.00,,,0.00,meteobridge,2013-07-18 04:33:00,
2013-07-18 00:38:00,75.6,70.7,30.00,SE,135,2.2,2.2,85,0.00,,,0.00,meteobridge,2013-07-18 04:38:00,
2013-07-18 00:44:00,75.6,70.7,30.00,South,180,0.7,0.7,85,0.00,,,0.00,meteobridge,2013-07-18 04:44:00,
2013-07-18 00:49:00,75.6,70.7,29.99,South,180,0.7,0.7,85,0.00,,,0.00,meteobridge,2013-07-18 04:49:00,
2013-07-18 00:54:00,75.6,70.7,29.99,South,180,1.6,1.6,85,0.00,,,0.00,meteobridge,2013-07-18 04:54:00,
2013-07-18 00:59:00,75.7,71.2,29.99,SE,135,0.7,0.7,86,0.00,,,0.00,meteobridge,2013-07-18 04:59:00,
2013-07-18 01:04:00,75.7,71.2,29.98,SE,135,0.0,1.6,86,0.00,,,0.00,meteobridge,2013-07-18 05:04:00,
2013-07-18 01:09:00,75.9,71.4,29.97,SE,135,0.7,0.7,86,0.00,,,0.00,meteobridge,2013-07-18 05:09:00,
2013-07-18 01:15:00,75.9,71.4,29.97,West,270,0.0,0.7,86,0.00,,,0.00,meteobridge,2013-07-18 05:15:00,
2013-07-18 01:20:00,75.9,71.4,29.98,North,0,2.2,2.2,86,0.00,,,0.00,meteobridge,2013-07-18 05:20:00,
2013-07-18 01:25:00,75.9,71.8,29.98,South,180,2.2,3.1,87,0.00,,,0.00,meteobridge,2013-07-18 05:25:00,
2013-07-18 01:30:00,76.1,72.0,29.98,NE,45,0.7,1.6,87,0.00,,,0.00,meteobridge,2013-07-18 05:30:00,
2013-07-18 01:35:00,76.3,72.1,29.99,West,270,1.6,2.2,87,0.00,,,0.00,meteobridge,2013-07-18 05:35:00,
2013-07-18 01:40:00,76.5,72.3,29.98,SW,225,0.7,0.7,87,0.00,,,0.00,meteobridge,2013-07-18 05:40:00,
2013-07-18 01:46:00,76.5,72.3,29.98,NW,315,1.6,1.6,87,0.00,,,0.00,meteobridge,2013-07-18 05:46:00,
2013-07-18 01:51:00,76.6,72.5,29.99,NW,315,0.7,1.6,87,0.00,,,0.00,meteobridge,2013-07-18 05:51:00,
2013-07-18 01:56:00,76.6,72.5,29.98,NW,315,0.7,1.6,87,0.00,,,0.00,meteobridge,2013-07-18 05:56:00,
2013-07-18 02:01:00,76.5,72.3,29.98,South,180,0.7,1.6,87,0.00,,,0.00,meteobridge,2013-07-18 06:01:00,
2013-07-18 02:06:00,76.6,72.5,29.98,SW,225,0.7,2.2,87,0.00,,,0.00,meteobridge,2013-07-18 06:06:00,
2013-07-18 02:11:00,76.6,72.5,29.98,North,0,2.2,2.2,87,0.00,,,0.00,meteobridge,2013-07-18 06:11:00,
2013-07-18 02:17:00,76.6,72.1,29.97,West,270,0.7,2.2,86,0.00,,,0.00,meteobridge,2013-07-18 06:17:00,
2013-07-18 02:22:00,76.6,72.1,29.97,East,90,1.6,1.6,86,0.00,,,0.00,meteobridge,2013-07-18 06:22:00,
2013-07-18 02:27:00,76.6,72.1,29.97,NE,45,1.6,1.6,86,0.00,,,0.00,meteobridge,2013-07-18 06:27:00,
2013-07-18 02:32:00,76.6,72.1,29.97,North,0,0.7,3.8,86,0.00,,,0.00,meteobridge,2013-07-18 06:32:00,
2013-07-18 02:37:00,76.8,72.3,29.97,South,180,1.6,1.6,86,0.00,,,0.00,meteobridge,2013-07-18 06:37:00,
2013-07-18 02:42:00,76.8,72.3,29.96,North,0,0.7,1.6,86,0.00,,,0.00,meteobridge,2013-07-18 06:42:00,
2013-07-18 02:48:00,76.8,72.3,29.97,East,90,1.6,1.6,86,0.00,,,0.00,meteobridge,2013-07-18 06:48:00,
2013-07-18 02:53:00,77.0,72.1,29.96,West,270,0.0,0.7,85,0.00,,,0.00,meteobridge,2013-07-18 06:53:00,
2013-07-18 02:58:00,77.0,72.1,29.96,South,180,1.6,1.6,85,0.00,,,0.00,meteobridge,2013-07-18 06:58:00,
2013-07-18 03:03:00,77.2,72.3,29.96,SE,135,1.6,1.6,85,0.00,,,0.00,meteobridge,2013-07-18 07:03:00,
2013-07-18 03:08:00,77.2,72.3,29.96,West,270,1.6,1.6,85,0.00,,,0.00,meteobridge,2013-07-18 07:08:00,
2013-07-18 03:13:00,77.2,72.3,29.95,SE,135,2.2,2.2,85,0.00,,,0.00,meteobridge,2013-07-18 07:13:00,
2013-07-18 03:19:00,77.2,72.3,29.95,NW,315,0.7,1.6,85,0.00,,,0.00,meteobridge,2013-07-18 07:19:00,
2013-07-18 03:24:00,77.2,72.3,29.95,North,0,0.7,0.7,85,0.00,,,0.00,meteobridge,2013-07-18 07:24:00,
2013-07-18 03:29:00,77.2,72.3,29.94,SE,135,0.7,0.7,85,0.00,,,0.00,meteobridge,2013-07-18 07:29:00,
2013-07-18 03:34:00,77.2,72.3,29.94,SE,135,1.6,2.2,85,0.00,,,0.00,meteobridge,2013-07-18 07:34:00,
2013-07-18 03:39:00,77.2,72.7,29.94,West,270,0.7,1.6,86,0.00,,,0.00,meteobridge,2013-07-18 07:39:00,
2013-07-18 03:44:00,77.2,72.7,29.94,SE,135,1.6,2.2,86,0.00,,,0.00,meteobridge,2013-07-18 07:44:00,
2013-07-18 03:50:00,77.2,72.7,29.94,South,180,0.7,1.6,86,0.00,,,0.00,meteobridge,2013-07-18 07:50:00,
2013-07-18 03:55:00,77.2,72.7,29.94,SE,135,1.6,1.6,86,0.00,,,0.00,meteobridge,2013-07-18 07:55:00,
2013-07-18 04:00:00,77.2,72.3,29.94,SE,135,1.6,3.1,85,0.00,,,0.00,meteobridge,2013-07-18 08:00:00,
2013-07-18 04:05:00,77.2,72.3,29.95,SE,135,0.7,0.7,85,0.00,,,0.00,meteobridge,2013-07-18 08:05:00,
2013-07-18 04:10:00,77.0,72.1,29.95,NW,315,0.7,0.7,85,0.00,,,0.00,meteobridge,2013-07-18 08:10:00,
2013-07-18 04:15:00,77.0,72.1,29.95,South,180,1.6,1.6,85,0.00,,,0.00,meteobridge,2013-07-18 08:15:00,
2013-07-18 04:21:00,77.0,72.1,29.95,NE,45,1.6,2.2,85,0.00,,,0.00,meteobridge,2013-07-18 08:21:00,
2013-07-18 04:26:00,77.0,72.1,29.95,SE,135,0.7,1.6,85,0.00,,,0.00,meteobridge,2013-07-18 08:26:00,
2013-07-18 04:31:00,77.0,72.1,29.95,South,180,0.7,1.6,85,0.00,,,0.00,meteobridge,2013-07-18 08:31:00,
2013-07-18 04:36:00,77.0,72.1,29.95,West,270,2.2,3.1,85,0.00,,,0.00,meteobridge,2013-07-18 08:36:00,
2013-07-18 04:41:00,77.0,72.1,29.95,SW,225,0.0,0.7,85,0.00,,,0.00,meteobridge,2013-07-18 08:41:00,
2013-07-18 04:46:00,77.0,72.1,29.95,NW,315,0.7,0.7,85,0.00,,,0.00,meteobridge,2013-07-18 08:46:00,
2013-07-18 04:52:00,77.0,72.1,29.95,SE,135,0.7,1.6,85,0.00,,,0.00,meteobridge,2013-07-18 08:52:00,
2013-07-18 04:57:00,76.8,72.3,29.94,SW,225,1.6,1.6,86,0.00,,,0.00,meteobridge,2013-07-18 08:57:00,
2013-07-18 05:02:00,76.8,72.3,29.95,West,270,0.0,0.7,86,0.00,,,0.00,meteobridge,2013-07-18 09:02:00,
2013-07-18 05:07:00,76.8,72.3,29.95,SE,135,1.6,1.6,86,0.00,,,0.00,meteobridge,2013-07-18 09:07:00,
2013-07-18 05:12:00,77.0,72.1,29.94,North,0,0.7,0.7,85,0.00,,,0.00,meteobridge,2013-07-18 09:12:00,
2013-07-18 05:17:00,77.0,72.1,29.95,NW,315,0.7,2.2,85,0.00,,,0.00,meteobridge,2013-07-18 09:17:00,
2013-07-18 05:23:00,77.0,72.1,29.95,South,180,1.6,2.2,85,0.00,,,0.00,meteobridge,2013-07-18 09:23:00,
2013-07-18 05:28:00,77.0,72.1,29.95,SW,225,0.7,1.6,85,0.00,,,0.00,meteobridge,2013-07-18 09:28:00,
2013-07-18 05:33:00,77.0,72.1,29.95,WSW,248,0.7,0.7,85,0.00,,,0.00,meteobridge,2013-07-18 09:33:00,
2013-07-18 05:38:00,76.8,72.3,29.95,NW,315,1.6,1.6,86,0.00,,,0.00,meteobridge,2013-07-18 09:38:00,
2013-07-18 05:43:00,76.8,72.7,29.95,South,180,0.0,0.7,87,0.00,,,0.00,meteobridge,2013-07-18 09:43:00,
2013-07-18 05:48:00,76.8,72.7,29.95,SW,225,1.6,1.6,87,0.00,,,0.00,meteobridge,2013-07-18 09:48:00,
2013-07-18 05:54:00,76.8,72.7,29.95,North,0,0.7,0.7,87,0.00,,,0.00,meteobridge,2013-07-18 09:54:00,
2013-07-18 05:59:00,76.8,72.7,29.95,West,270,0.7,0.7,87,0.00,,,0.00,meteobridge,2013-07-18 09:59:00,
2013-07-18 06:04:00,76.8,73.0,29.95,NW,315,0.0,0.7,88,0.00,,,0.00,meteobridge,2013-07-18 10:04:00,
2013-07-18 06:09:00,76.6,72.9,29.95,SW,225,0.0,0.7,88,0.00,,,0.00,meteobridge,2013-07-18 10:09:00,
2013-07-18 06:14:00,76.6,72.9,29.95,South,180,0.0,0.7,88,0.00,,,0.00,meteobridge,2013-07-18 10:14:00,
2013-07-18 06:19:00,76.6,72.9,29.95,SE,135,0.7,0.7,88,0.00,,,0.00,meteobridge,2013-07-18 10:19:00,
2013-07-18 06:25:00,76.6,73.2,29.95,SE,135,1.6,1.6,89,0.00,,,0.00,meteobridge,2013-07-18 10:25:00,
2013-07-18 06:30:00,76.6,73.2,29.95,South,180,0.7,0.7,89,0.00,,,0.00,meteobridge,2013-07-18 10:30:00,
2013-07-18 06:35:00,76.6,73.2,29.95,East,90,0.0,0.0,89,0.00,,,0.00,meteobridge,2013-07-18 10:35:00,
2013-07-18 06:40:00,76.8,73.6,29.95,East,90,0.0,0.0,90,0.00,,,0.00,meteobridge,2013-07-18 10:40:00,
2013-07-18 06:45:00,76.8,73.6,29.95,East,90,0.0,0.0,90,0.00,,,0.00,meteobridge,2013-07-18 10:45:00,
2013-07-18 06:51:00,77.0,73.6,29.96,North,0,0.0,0.0,89,0.00,,,0.00,meteobridge,2013-07-18 10:51:00,
2013-07-18 06:56:00,77.4,73.9,29.96,North,0,0.0,0.0,89,0.00,,,0.00,meteobridge,2013-07-18 10:56:00,
2013-07-18 07:01:00,77.7,74.3,29.96,West,270,0.0,0.0,89,0.00,,,0.00,meteobridge,2013-07-18 11:01:00,
2013-07-18 07:06:00,77.9,74.1,29.96,SW,225,0.0,0.0,88,0.00,,,0.00,meteobridge,2013-07-18 11:06:00,
2013-07-18 07:11:00,77.9,74.1,29.96,SE,135,0.7,1.6,88,0.00,,,0.00,meteobridge,2013-07-18 11:11:00,
2013-07-18 07:16:00,77.7,73.9,29.96,South,180,0.7,0.7,88,0.00,,,0.00,meteobridge,2013-07-18 11:16:00,
2013-07-18 07:22:00,77.9,74.1,29.96,South,180,0.0,0.7,88,0.00,,,0.00,meteobridge,2013-07-18 11:22:00,
2013-07-18 07:27:00,78.1,74.3,29.96,SW,225,0.0,0.0,88,0.00,,,0.00,meteobridge,2013-07-18 11:27:00,
2013-07-18 07:32:00,78.3,74.1,29.96,SW,225,0.7,0.7,87,0.00,,,0.00,meteobridge,2013-07-18 11:32:00,
2013-07-18 07:37:00,78.6,74.5,29.96,SW,225,0.0,1.6,87,0.00,,,0.00,meteobridge,2013-07-18 11:37:00,
2013-07-18 07:42:00,79.2,74.7,29.96,West,270,0.7,0.7,86,0.00,,,0.00,meteobridge,2013-07-18 11:42:00,
2013-07-18 07:47:00,79.9,74.7,29.96,NE,45,0.0,2.2,84,0.00,,,0.00,meteobridge,2013-07-18 11:47:00,
2013-07-18 07:53:00,80.8,75.2,29.96,South,180,0.7,0.7,83,0.00,,,0.00,meteobridge,2013-07-18 11:53:00,
2013-07-18 07:58:00,81.3,74.8,29.96,SW,225,1.6,1.6,81,0.00,,,0.00,meteobridge,2013-07-18 11:58:00,
2013-07-18 08:03:00,81.5,75.0,29.97,SW,225,0.7,0.7,81,0.00,,,0.00,meteobridge,2013-07-18 12:03:00,
2013-07-18 08:08:00,81.7,74.8,29.97,SE,135,1.6,1.6,80,0.00,,,0.00,meteobridge,2013-07-18 12:08:00,
2013-07-18 08:13:00,81.3,74.5,29.97,North,0,0.7,2.2,80,0.00,,,0.00,meteobridge,2013-07-18 12:13:00,
2013-07-18 08:18:00,81.0,74.7,29.97,West,270,0.7,0.7,81,0.00,,,0.00,meteobridge,2013-07-18 12:18:00,
2013-07-18 08:24:00,81.0,74.7,29.97,SE,135,1.6,1.6,81,0.00,,,0.00,meteobridge,2013-07-18 12:24:00,
2013-07-18 08:29:00,80.8,74.5,29.97,NE,45,0.7,1.6,81,0.00,,,0.00,meteobridge,2013-07-18 12:29:00,
2013-07-18 08:34:00,80.8,74.5,29.97,South,180,0.0,0.7,81,0.00,,,0.00,meteobridge,2013-07-18 12:34:00,
2013-07-18 08:39:00,81.0,74.7,29.97,NE,45,0.7,0.7,81,0.00,,,0.00,meteobridge,2013-07-18 12:39:00,
2013-07-18 08:44:00,81.3,74.8,29.97,West,270,0.7,0.7,81,0.00,,,0.00,meteobridge,2013-07-18 12:44:00,
2013-07-18 08:49:00,81.5,75.0,29.97,SW,225,0.7,0.7,81,0.00,,,0.00,meteobridge,2013-07-18 12:49:00,
2013-07-18 08:55:00,81.9,75.0,29.97,North,0,0.7,0.7,80,0.00,,,0.00,meteobridge,2013-07-18 12:55:00,
2013-07-18 09:00:00,82.2,75.0,29.97,West,270,0.7,1.6,79,0.00,,,0.00,meteobridge,2013-07-18 13:00:00,
2013-07-18 09:05:00,82.6,75.0,29.98,NW,315,0.7,0.7,78,0.00,,,0.00,meteobridge,2013-07-18 13:05:00,
2013-07-18 09:10:00,82.9,75.0,29.97,North,0,0.7,1.6,77,0.00,,,0.00,meteobridge,2013-07-18 13:10:00,
2013-07-18 09:15:00,83.1,75.2,29.97,South,180,0.7,0.7,77,0.00,,,0.00,meteobridge,2013-07-18 13:15:00,
2013-07-18 09:20:00,83.5,75.0,29.97,SW,225,0.7,0.7,76,0.00,,,0.00,meteobridge,2013-07-18 13:20:00,
2013-07-18 09:26:00,83.5,74.7,29.98,South,180,0.7,1.6,75,0.00,,,0.00,meteobridge,2013-07-18 13:26:00,
2013-07-18 09:31:00,83.8,75.0,29.98,SW,225,0.7,1.6,75,0.00,,,0.00,meteobridge,2013-07-18 13:31:00,
2013-07-18 09:36:00,84.2,75.0,29.97,West,270,2.2,2.2,74,0.00,,,0.00,meteobridge,2013-07-18 13:36:00,
2013-07-18 09:41:00,84.4,74.8,29.98,SW,225,0.7,1.6,73,0.00,,,0.00,meteobridge,2013-07-18 13:41:00,
2013-07-18 09:46:00,84.9,75.7,29.97,South,180,1.6,2.2,74,0.00,,,0.00,meteobridge,2013-07-18 13:46:00,
2013-07-18 09:51:00,85.5,75.7,29.98,South,180,0.7,0.7,73,0.00,,,0.00,meteobridge,2013-07-18 13:51:00,
2013-07-18 09:57:00,86.0,75.9,29.98,SW,225,0.7,0.7,72,0.00,,,0.00,meteobridge,2013-07-18 13:57:00,
2013-07-18 10:02:00,86.4,75.9,29.98,SW,225,0.7,0.7,71,0.00,,,0.00,meteobridge,2013-07-18 14:02:00,
2013-07-18 10:07:00,87.4,76.5,29.98,West,270,1.6,1.6,70,0.00,,,0.00,meteobridge,2013-07-18 14:07:00,
2013-07-18 10:12:00,87.6,76.1,29.98,West,270,0.0,0.7,69,0.00,,,0.00,meteobridge,2013-07-18 14:12:00,
2013-07-18 10:17:00,88.3,75.6,29.98,North,0,0.7,1.6,66,0.00,,,0.00,meteobridge,2013-07-18 14:17:00,
2013-07-18 10:22:00,90.0,76.6,29.98,SE,135,1.6,2.2,65,0.00,,,0.00,meteobridge,2013-07-18 14:22:00,
2013-07-18 10:28:00,91.0,75.7,29.98,NW,315,1.6,2.2,61,0.00,,,0.00,meteobridge,2013-07-18 14:28:00,
2013-07-18 10:33:00,93.4,74.8,29.98,North,0,1.6,1.6,55,0.00,,,0.00,meteobridge,2013-07-18 14:33:00,
2013-07-18 10:38:00,95.2,73.6,29.98,NW,315,2.2,2.2,50,0.00,,,0.00,meteobridge,2013-07-18 14:38:00,
2013-07-18 10:43:00,96.4,73.6,29.98,SW,225,0.7,2.2,48,0.00,,,0.00,meteobridge,2013-07-18 14:43:00,
2013-07-18 10:48:00,96.6,74.3,29.98,South,180,2.2,2.2,49,0.00,,,0.00,meteobridge,2013-07-18 14:48:00,
2013-07-18 10:53:00,96.6,73.0,29.98,SE,135,2.2,2.2,47,0.00,,,0.00,meteobridge,2013-07-18 14:53:00,
2013-07-18 10:59:00,97.0,73.4,29.98,SW,225,2.2,2.2,47,0.00,,,0.00,meteobridge,2013-07-18 14:59:00,
2013-07-18 11:04:00,96.8,72.0,29.99,NNE,23,2.2,2.2,45,0.00,,,0.00,meteobridge,2013-07-18 15:04:00,
2013-07-18 11:09:00,96.3,72.1,29.98,South,180,2.2,2.2,46,0.00,,,0.00,meteobridge,2013-07-18 15:09:00,
2013-07-18 11:14:00,96.1,72.0,29.98,North,0,2.2,3.1,46,0.00,,,0.00,meteobridge,2013-07-18 15:14:00,
2013-07-18 11:19:00,96.1,72.0,29.98,SW,225,2.2,2.2,46,0.00,,,0.00,meteobridge,2013-07-18 15:19:00,
2013-07-18 11:24:00,96.4,72.9,29.98,SW,225,1.6,1.6,47,0.00,,,0.00,meteobridge,2013-07-18 15:24:00,
2013-07-18 11:30:00,97.9,72.3,29.98,WSW,248,2.2,3.1,44,0.00,,,0.00,meteobridge,2013-07-18 15:30:00,
2013-07-18 11:35:00,97.5,72.0,29.99,SW,225,2.2,3.8,44,0.00,,,0.00,meteobridge,2013-07-18 15:35:00,
2013-07-18 11:40:00,96.8,72.0,29.98,SW,225,1.6,1.6,45,0.00,,,0.00,meteobridge,2013-07-18 15:40:00,
2013-07-18 11:45:00,96.3,72.1,29.99,NW,315,2.2,2.2,46,0.00,,,0.00,meteobridge,2013-07-18 15:45:00,
2013-07-18 11:50:00,95.9,71.8,29.98,WSW,248,3.1,3.1,46,0.00,,,0.00,meteobridge,2013-07-18 15:50:00,
2013-07-18 11:56:00,95.9,71.8,29.99,NE,45,1.6,2.2,46,0.00,,,0.00,meteobridge,2013-07-18 15:56:00,
2013-07-18 12:01:00,96.1,72.0,29.99,South,180,3.1,3.8,46,0.00,,,0.00,meteobridge,2013-07-18 16:01:00,
2013-07-18 12:06:00,95.4,71.2,29.99,South,180,3.1,3.1,46,0.00,,,0.00,meteobridge,2013-07-18 16:06:00,
2013-07-18 12:11:00,94.6,72.5,29.99,NW,315,1.6,1.6,49,0.00,,,0.00,meteobridge,2013-07-18 16:11:00,
2013-07-18 12:16:00,95.0,71.6,29.99,South,180,3.8,3.8,47,0.00,,,0.00,meteobridge,2013-07-18 16:16:00,
2013-07-18 12:21:00,94.8,72.7,29.99,NW,315,1.6,2.2,49,0.00,,,0.00,meteobridge,2013-07-18 16:21:00,
2013-07-18 12:26:00,95.5,72.1,29.99,SE,135,3.1,3.1,47,0.00,,,0.00,meteobridge,2013-07-18 16:26:00,
2013-07-18 12:32:00,96.1,72.5,29.99,South,180,1.6,1.6,47,0.00,,,0.00,meteobridge,2013-07-18 16:32:00,
2013-07-18 12:37:00,95.7,71.6,29.99,NW,315,2.2,2.2,46,0.00,,,0.00,meteobridge,2013-07-18 16:37:00,
2013-07-18 12:42:00,95.0,71.6,29.99,SW,225,2.2,2.2,47,0.00,,,0.00,meteobridge,2013-07-18 16:42:00,
2013-07-18 12:47:00,95.0,71.6,29.99,NE,45,3.1,3.8,47,0.00,,,0.00,meteobridge,2013-07-18 16:47:00,
2013-07-18 12:52:00,94.6,72.5,29.99,NE,45,2.2,2.2,49,0.00,,,0.00,meteobridge,2013-07-18 16:52:00,
2013-07-18 12:58:00,95.4,72.0,29.98,SE,135,2.2,2.2,47,0.00,,,0.00,meteobridge,2013-07-18 16:58:00,
2013-07-18 13:03:00,95.5,71.4,29.99,SW,225,1.6,2.2,46,0.00,,,0.00,meteobridge,2013-07-18 17:03:00,
2013-07-18 13:08:00,95.4,72.0,29.99,North,0,2.2,3.1,47,0.00,,,0.00,meteobridge,2013-07-18 17:08:00,
2013-07-18 13:13:00,95.4,72.0,29.99,North,0,1.6,2.2,47,0.00,,,0.00,meteobridge,2013-07-18 17:13:00,
2013-07-18 13:18:00,96.1,73.2,29.98,SSW,203,1.6,1.6,48,0.00,,,0.00,meteobridge,2013-07-18 17:18:00,
2013-07-18 13:23:00,96.1,72.5,29.98,SW,225,1.6,3.1,47,0.00,,,0.00,meteobridge,2013-07-18 17:23:00,
2013-07-18 13:29:00,96.1,72.5,29.99,SSE,158,1.6,1.6,47,0.00,,,0.00,meteobridge,2013-07-18 17:29:00,
2013-07-18 13:34:00,95.9,72.5,29.99,South,180,1.6,1.6,47,0.00,,,0.00,meteobridge,2013-07-18 17:34:00,
2013-07-18 13:39:00,95.4,72.0,29.99,NW,315,0.7,1.6,47,0.00,,,0.00,meteobridge,2013-07-18 17:39:00,
2013-07-18 13:44:00,94.8,72.1,29.99,SE,135,3.8,3.8,48,0.00,,,0.00,meteobridge,2013-07-18 17:44:00,
2013-07-18 13:49:00,92.3,70.3,29.98,SW,225,3.1,3.1,49,0.00,,,0.00,meteobridge,2013-07-18 17:49:00,
2013-07-18 13:54:00,91.8,71.6,29.98,North,0,2.2,2.2,52,0.00,,,0.00,meteobridge,2013-07-18 17:54:00,
2013-07-18 14:00:00,91.8,71.1,29.98,South,180,4.5,4.5,51,0.00,,,0.00,meteobridge,2013-07-18 18:00:00,
2013-07-18 14:05:00,91.4,71.2,29.99,West,270,1.6,3.1,52,0.00,,,0.00,meteobridge,2013-07-18 18:05:00,
2013-07-18 14:10:00,90.7,70.7,29.98,NW,315,1.6,1.6,52,0.00,,,0.00,meteobridge,2013-07-18 18:10:00,
2013-07-18 14:15:00,90.0,71.1,29.98,South,180,1.6,2.2,54,0.00,,,0.00,meteobridge,2013-07-18 18:15:00,
2013-07-18 14:20:00,89.8,70.9,29.98,SE,135,1.6,2.2,54,0.00,,,0.00,meteobridge,2013-07-18 18:20:00,
2013-07-18 14:25:00,89.4,71.1,29.98,SSW,203,2.2,2.2,55,0.00,,,0.00,meteobridge,2013-07-18 18:25:00,
2013-07-18 14:31:00,89.2,70.9,29.98,North,0,1.6,3.1,55,0.00,,,0.00,meteobridge,2013-07-18 18:31:00,
2013-07-18 14:36:00,89.4,71.6,29.98,SW,225,2.2,2.2,56,0.00,,,0.00,meteobridge,2013-07-18 18:36:00,
2013-07-18 14:41:00,89.2,70.9,29.98,SE,135,0.7,2.2,55,0.00,,,0.00,meteobridge,2013-07-18 18:41:00,
2013-07-18 14:46:00,88.9,71.6,29.98,NE,45,1.6,2.2,57,0.00,,,0.00,meteobridge,2013-07-18 18:46:00,
2013-07-18 14:51:00,88.9,71.6,29.98,SE,135,2.2,3.1,57,0.00,,,0.00,meteobridge,2013-07-18 18:51:00,
2013-07-18 14:56:00,88.2,71.1,29.98,SE,135,1.6,3.1,57,0.00,,,0.00,meteobridge,2013-07-18 18:56:00,
2013-07-18 15:02:00,88.0,71.4,29.98,SE,135,3.8,3.8,58,0.00,,,0.00,meteobridge,2013-07-18 19:02:00,
2013-07-18 15:07:00,87.4,71.8,29.98,WNW,293,2.2,2.2,60,0.00,,,0.00,meteobridge,2013-07-18 19:07:00,
2013-07-18 15:12:00,87.1,71.4,29.98,East,90,1.6,2.2,60,0.00,,,0.00,meteobridge,2013-07-18 19:12:00,
2013-07-18 15:17:00,87.1,72.5,29.98,NE,45,0.7,2.2,62,0.00,,,0.00,meteobridge,2013-07-18 19:17:00,
2013-07-18 15:22:00,86.9,71.8,29.98,NW,315,0.7,1.6,61,0.00,,,0.00,meteobridge,2013-07-18 19:22:00,
2013-07-18 15:27:00,86.4,71.2,29.98,South,180,2.2,3.8,61,0.00,,,0.00,meteobridge,2013-07-18 19:27:00,
2013-07-18 15:33:00,85.6,72.1,29.98,NW,315,1.6,1.6,64,0.00,,,0.00,meteobridge,2013-07-18 19:33:00,
2013-07-18 15:38:00,85.8,72.7,29.98,SE,135,3.1,3.1,65,0.00,,,0.00,meteobridge,2013-07-18 19:38:00,
2013-07-18 15:43:00,85.6,72.5,29.98,South,180,2.2,2.2,65,0.00,,,0.00,meteobridge,2013-07-18 19:43:00,
2013-07-18 15:48:00,85.8,72.1,29.97,NW,315,1.6,2.2,64,0.00,,,0.00,meteobridge,2013-07-18 19:48:00,
2013-07-18 15:53:00,85.6,72.1,29.97,NW,315,0.7,1.6,64,0.00,,,0.00,meteobridge,2013-07-18 19:53:00,
2013-07-18 15:58:00,85.6,72.5,29.97,SW,225,0.7,0.7,65,0.00,,,0.00,meteobridge,2013-07-18 19:58:00,
2013-07-18 16:04:00,86.0,72.3,29.97,NW,315,2.2,2.2,64,0.00,,,0.00,meteobridge,2013-07-18 20:04:00,
2013-07-18 16:09:00,85.8,72.1,29.97,South,180,3.1,3.1,64,0.00,,,0.00,meteobridge,2013-07-18 20:09:00,
2013-07-18 16:14:00,85.6,72.5,29.96,North,0,2.2,2.2,65,0.00,,,0.00,meteobridge,2013-07-18 20:14:00,
2013-07-18 16:19:00,85.5,72.3,29.96,NW,315,0.7,1.6,65,0.00,,,0.00,meteobridge,2013-07-18 20:19:00,
2013-07-18 16:24:00,85.3,72.7,29.96,South,180,1.6,3.1,66,0.00,,,0.00,meteobridge,2013-07-18 20:24:00,
2013-07-18 16:29:00,84.7,71.6,29.96,SE,135,2.2,2.2,65,0.00,,,0.00,meteobridge,2013-07-18 20:29:00,
2013-07-18 16:35:00,84.6,72.0,29.96,West,270,1.6,1.6,66,0.00,,,0.00,meteobridge,2013-07-18 20:35:00,
2013-07-18 16:40:00,84.2,71.6,29.96,SE,135,1.6,1.6,66,0.00,,,0.00,meteobridge,2013-07-18 20:40:00,
2013-07-18 16:45:00,83.7,72.0,29.96,South,180,1.6,1.6,68,0.00,,,0.00,meteobridge,2013-07-18 20:45:00,
2013-07-18 16:50:00,83.5,71.8,29.96,SE,135,1.6,3.1,68,0.00,,,0.00,meteobridge,2013-07-18 20:50:00,
2013-07-18 16:55:00,83.1,71.4,29.96,South,180,2.2,2.2,68,0.00,,,0.00,meteobridge,2013-07-18 20:55:00,
2013-07-18 17:00:00,82.9,71.8,29.96,South,180,1.6,1.6,69,0.00,,,0.00,meteobridge,2013-07-18 21:00:00,
2013-07-18 17:06:00,82.8,71.6,29.96,NW,315,1.6,1.6,69,0.00,,,0.00,meteobridge,2013-07-18 21:06:00,
2013-07-18 17:11:00,82.8,72.0,29.97,North,0,0.0,0.7,70,0.00,,,0.00,meteobridge,2013-07-18 21:11:00,
2013-07-18 17:16:00,82.6,71.8,29.96,East,90,0.0,0.7,70,0.00,,,0.00,meteobridge,2013-07-18 21:16:00,
2013-07-18 17:21:00,82.2,72.3,29.96,SE,135,0.7,2.2,72,0.00,,,0.00,meteobridge,2013-07-18 21:21:00,
2013-07-18 17:26:00,81.9,72.0,29.96,South,180,0.7,1.6,72,0.00,,,0.00,meteobridge,2013-07-18 21:26:00,
2013-07-18 17:31:00,81.5,71.6,29.96,SE,135,0.0,0.0,72,0.00,,,0.00,meteobridge,2013-07-18 21:31:00,
2013-07-18 17:37:00,81.7,72.1,29.96,North,0,1.6,1.6,73,0.00,,,0.00,meteobridge,2013-07-18 21:37:00,
2013-07-18 17:42:00,81.5,72.0,29.96,South,180,1.6,2.2,73,0.00,,,0.00,meteobridge,2013-07-18 21:42:00,
2013-07-18 17:47:00,81.1,71.6,29.96,East,90,0.7,1.6,73,0.00,,,0.00,meteobridge,2013-07-18 21:47:00,
2013-07-18 17:52:00,81.0,71.4,29.96,North,0,0.7,1.6,73,0.00,,,0.00,meteobridge,2013-07-18 21:52:00,
2013-07-18 17:57:00,80.8,71.8,29.96,NW,315,1.6,1.6,74,0.00,,,0.00,meteobridge,2013-07-18 21:57:00,
2013-07-18 18:02:00,80.6,71.6,29.97,SW,225,0.7,1.6,74,0.00,,,0.00,meteobridge,2013-07-18 22:02:00,
2013-07-18 18:08:00,80.4,71.8,29.96,SE,135,0.7,2.2,75,0.00,,,0.00,meteobridge,2013-07-18 22:08:00,
2013-07-18 18:13:00,80.1,71.4,29.96,South,180,1.6,1.6,75,0.00,,,0.00,meteobridge,2013-07-18 22:13:00,
2013-07-18 18:18:00,79.9,71.6,29.96,South,180,0.7,1.6,76,0.00,,,0.00,meteobridge,2013-07-18 22:18:00,
2013-07-18 18:23:00,79.7,71.4,29.96,East,90,1.6,1.6,76,0.00,,,0.00,meteobridge,2013-07-18 22:23:00,
2013-07-18 18:28:00,79.3,71.4,29.96,North,0,0.0,1.6,77,0.00,,,0.00,meteobridge,2013-07-18 22:28:00,
2013-07-18 18:33:00,79.0,71.1,29.96,NW,315,1.6,2.2,77,0.00,,,0.00,meteobridge,2013-07-18 22:33:00,
2013-07-18 18:39:00,78.8,71.4,29.96,NE,45,1.6,1.6,78,0.00,,,0.00,meteobridge,2013-07-18 22:39:00,
2013-07-18 18:44:00,78.8,71.4,29.96,East,90,0.7,1.6,78,0.00,,,0.00,meteobridge,2013-07-18 22:44:00,
2013-07-18 18:49:00,78.6,72.0,29.96,North,0,0.7,1.6,80,0.00,,,0.00,meteobridge,2013-07-18 22:49:00,
2013-07-18 18:54:00,78.4,71.8,29.96,North,0,0.7,0.7,80,0.00,,,0.00,meteobridge,2013-07-18 22:54:00,
2013-07-18 18:59:00,78.1,71.8,29.96,SW,225,0.7,0.7,81,0.00,,,0.00,meteobridge,2013-07-18 22:59:00,
2013-07-18 19:05:00,78.1,72.1,29.96,North,0,0.7,0.7,82,0.00,,,0.00,meteobridge,2013-07-18 23:05:00,
2013-07-18 19:10:00,77.9,72.0,29.96,SW,225,0.7,0.7,82,0.00,,,0.00,meteobridge,2013-07-18 23:10:00,
2013-07-18 19:15:00,77.7,72.1,29.96,SW,225,0.7,0.7,83,0.00,,,0.00,meteobridge,2013-07-18 23:15:00,
2013-07-18 19:20:00,77.7,72.1,29.97,South,180,0.0,0.7,83,0.00,,,0.00,meteobridge,2013-07-18 23:20:00,
2013-07-18 19:25:00,77.5,72.0,29.97,South,180,0.7,0.7,83,0.00,,,0.00,meteobridge,2013-07-18 23:25:00,
2013-07-18 19:30:00,77.4,71.8,29.97,South,180,1.6,1.6,83,0.00,,,0.00,meteobridge,2013-07-18 23:30:00,
2013-07-18 19:36:00,77.2,71.6,29.97,East,90,0.0,0.7,83,0.00,,,0.00,meteobridge,2013-07-18 23:36:00,
2013-07-18 19:41:00,76.8,71.6,29.97,South,180,1.6,1.6,84,0.00,,,0.00,meteobridge,2013-07-18 23:41:00,
2013-07-18 19:46:00,76.6,71.8,29.96,North,0,1.6,1.6,85,0.00,,,0.00,meteobridge,2013-07-18 23:46:00,
2013-07-18 19:51:00,76.5,71.6,29.96,SE,135,0.7,0.7,85,0.00,,,0.00,meteobridge,2013-07-18 23:51:00,
2013-07-18 19:56:00,76.3,71.4,29.96,West,270,0.0,0.0,85,0.00,,,0.00,meteobridge,2013-07-18 23:56:00,
2013-07-18 20:01:00,76.1,71.6,29.96,SW,225,0.0,0.7,86,0.00,,,0.00,meteobridge,2013-07-19 00:01:00,
2013-07-18 20:07:00,75.9,71.4,29.96,West,270,0.0,0.7,86,0.00,,,0.00,meteobridge,2013-07-19 00:07:00,
2013-07-18 20:12:00,75.7,71.2,29.96,South,180,0.0,0.7,86,0.00,,,0.00,meteobridge,2013-07-19 00:12:00,
2013-07-18 20:17:00,75.6,71.1,29.96,South,180,0.0,0.0,86,0.00,,,0.00,meteobridge,2013-07-19 00:17:00,
2013-07-18 20:22:00,75.6,71.4,29.96,North,0,0.0,0.0,87,0.00,,,0.00,meteobridge,2013-07-19 00:22:00,
2013-07-18 20:27:00,75.4,71.2,29.96,North,0,0.0,0.0,87,0.00,,,0.00,meteobridge,2013-07-19 00:27:00,
2013-07-18 20:32:00,75.4,71.2,29.97,SW,225,0.0,0.0,87,0.00,,,0.00,meteobridge,2013-07-19 00:32:00,
2013-07-18 20:38:00,75.2,71.1,29.96,North,0,0.0,0.0,87,0.00,,,0.00,meteobridge,2013-07-19 00:38:00,
2013-07-18 20:43:00,75.2,71.1,29.96,NW,315,0.0,0.0,87,0.00,,,0.00,meteobridge,2013-07-19 00:43:00,
2013-07-18 20:48:00,75.2,71.1,29.96,South,180,0.0,0.0,87,0.00,,,0.00,meteobridge,2013-07-19 00:48:00,
2013-07-18 20:53:00,75.2,71.1,29.96,NE,45,0.7,0.7,87,0.00,,,0.00,meteobridge,2013-07-19 00:53:00,
2013-07-18 20:58:00,75.0,71.2,29.96,NW,315,0.0,0.7,88,0.00,,,0.00,meteobridge,2013-07-19 00:58:00,
2013-07-18 21:03:00,75.0,71.2,29.97,SW,225,0.7,0.7,88,0.00,,,0.00,meteobridge,2013-07-19 01:03:00,
2013-07-18 21:09:00,75.0,71.2,29.96,NE,45,0.0,0.0,88,0.00,,,0.00,meteobridge,2013-07-19 01:09:00,
2013-07-18 21:14:00,75.0,71.2,29.96,South,180,0.0,0.0,88,0.00,,,0.00,meteobridge,2013-07-19 01:14:00,
2013-07-18 21:19:00,74.8,71.1,29.96,West,270,0.0,0.0,88,0.00,,,0.00,meteobridge,2013-07-19 01:19:00,
2013-07-18 21:24:00,74.8,71.1,29.96,South,180,0.0,0.0,88,0.00,,,0.00,meteobridge,2013-07-19 01:24:00,
2013-07-18 21:29:00,74.8,71.1,29.97,South,180,0.0,0.0,88,0.00,,,0.00,meteobridge,2013-07-19 01:29:00,
2013-07-18 21:34:00,74.8,71.4,29.97,South,180,0.0,0.0,89,0.00,,,0.00,meteobridge,2013-07-19 01:34:00,
2013-07-18 21:40:00,74.8,71.4,29.97,West,270,0.0,0.7,89,0.00,,,0.00,meteobridge,2013-07-19 01:40:00,
2013-07-18 21:45:00,74.8,71.4,29.97,North,0,0.0,0.0,89,0.00,,,0.00,meteobridge,2013-07-19 01:45:00,
2013-07-18 21:50:00,74.8,71.4,29.97,North,0,0.0,0.0,89,0.00,,,0.00,meteobridge,2013-07-19 01:50:00,
2013-07-18 21:55:00,74.8,71.4,29.97,West,270,0.0,0.7,89,0.00,,,0.00,meteobridge,2013-07-19 01:55:00,
2013-07-18 22:00:00,74.8,71.4,29.97,North,0,0.7,0.7,89,0.00,,,0.00,meteobridge,2013-07-19 02:00:00,
2013-07-18 22:05:00,74.8,71.4,29.97,South,180,0.0,0.7,89,0.00,,,0.00,meteobridge,2013-07-19 02:05:00,
2013-07-18 22:11:00,74.8,71.4,29.97,North,0,0.0,0.0,89,0.00,,,0.00,meteobridge,2013-07-19 02:11:00,
2013-07-18 22:16:00,75.0,71.6,29.97,South,180,0.0,0.0,89,0.00,,,0.00,meteobridge,2013-07-19 02:16:00,
2013-07-18 22:21:00,75.0,71.6,29.97,North,0,0.0,0.7,89,0.00,,,0.00,meteobridge,2013-07-19 02:21:00,
2013-07-18 22:26:00,75.0,71.6,29.97,South,180,0.7,0.7,89,0.00,,,0.00,meteobridge,2013-07-19 02:26:00,
2013-07-18 22:31:00,75.0,71.6,29.97,SW,225,0.0,0.0,89,0.00,,,0.00,meteobridge,2013-07-19 02:31:00,
2013-07-18 22:36:00,75.0,71.6,29.97,South,180,0.0,0.0,89,0.00,,,0.00,meteobridge,2013-07-19 02:36:00,
2013-07-18 22:42:00,75.0,71.2,29.97,NW,315,0.0,0.0,88,0.00,,,0.00,meteobridge,2013-07-19 02:42:00,
2013-07-18 22:47:00,75.0,71.2,29.97,SW,225,0.0,0.7,88,0.00,,,0.00,meteobridge,2013-07-19 02:47:00,
2013-07-18 22:52:00,75.0,71.6,29.96,West,270,0.0,0.7,89,0.00,,,0.00,meteobridge,2013-07-19 02:52:00,
2013-07-18 22:57:00,75.0,71.6,29.96,South,180,0.0,0.0,89,0.00,,,0.00,meteobridge,2013-07-19 02:57:00,
2013-07-18 23:02:00,75.0,71.6,29.96,NE,45,0.0,0.7,89,0.00,,,0.00,meteobridge,2013-07-19 03:02:00,
2013-07-18 23:07:00,75.2,71.4,29.96,South,180,0.7,0.7,88,0.00,,,0.00,meteobridge,2013-07-19 03:07:00,
2013-07-18 23:13:00,75.2,71.4,29.96,SE,135,0.7,0.7,88,0.00,,,0.00,meteobridge,2013-07-19 03:13:00,
2013-07-18 23:18:00,75.2,71.8,29.96,South,180,1.6,1.6,89,0.00,,,0.00,meteobridge,2013-07-19 03:18:00,
2013-07-18 23:23:00,75.2,71.8,29.96,West,270,0.7,0.7,89,0.00,,,0.00,meteobridge,2013-07-19 03:23:00,
2013-07-18 23:28:00,75.2,71.8,29.95,West,270,0.0,0.7,89,0.00,,,0.00,meteobridge,2013-07-19 03:28:00,
2013-07-18 23:33:00,75.2,71.8,29.95,West,270,0.7,0.7,89,0.00,,,0.00,meteobridge,2013-07-19 03:33:00,
2013-07-18 23:38:00,75.2,71.8,29.95,SE,135,0.0,0.0,89,0.00,,,0.00,meteobridge,2013-07-19 03:38:00,
2013-07-18 23:44:00,75.4,72.3,29.95,South,180,0.0,0.0,90,0.00,,,0.00,meteobridge,2013-07-19 03:44:00,
2013-07-18 23:49:00,75.4,72.3,29.95,South,180,0.0,0.0,90,0.00,,,0.00,meteobridge,2013-07-19 03:49:00,
2013-07-18 23:54:00,75.4,72.3,29.94,NE,45,0.0,0.0,90,0.00,,,0.00,meteobridge,2013-07-19 03:54:00,
2013-07-18 23:59:00,75.4,72.3,29.94,NW,315,0.0,0.0,90,0.00,,,0.00,meteobridge,2013-07-19 03:59:00,